Showing default

ASTROSAT, 40930

Orbit data source: Space-Track

ASTROSAT, 40930 is a payload satellite owned by ISRO (IN) in LEO that was launched on Mon, 28 Sep 2015 UTC via a PSLV-XL launch vehicle from the Sirharikota (SRI). Payload-class satellites include a variety of spacecraft equipped with specific instruments for various scientific and technological missions. These include communications satellites like Starlink; space stations such as the ISS; scientific satellites like the Hubble; Earth observation satellites from companies like Planet Labs, Umbra, and HawkEye 360; GPS; miniature CubeSats for education and research; and military/defense satellites.

Not visible in the next 10 days
Identifier
40930, 2015-052A
Orbit
LEO
Country
Flag of ININ / IND
Related business
Manufacturer
ISRO SAC/Banga
Mission
Operational Civil Astronomy
Bus & Motor
ASTROSAT, AOCS
Mass
1,513 kg wet, 1,470 kg dry
Launch date (UTC)
2015-09-28 (10 years ago)
Launch vehicle
PSLV-XL
Launch site
Sirharikota (SRI)
Object type
Payload
Rocket body
Debris
Shape & HBR
Box + 2 Pan, 3.5 m
Radar Cross Section
5.447 m², Large (>1 m²)

Expand to show TLE details & history
Last TLE update: 1 day ago

TLE from 1 day ago
0 ASTROSAT
1 40930U 15052A   25287.22264964  .00002561  00000-0  23430-3 0  9997
2 40930   5.9962 124.9461 0007380 127.5140 232.5658 14.81776354543272
Epoch: 2025-10-14T05:20Z
TLE epoch observation values (Epoch: 2025-10-14T05:20:36.928Z)
Latitude
-0.00001°
Longitude
21.77792°
Altitude
623.803 km
Speed
7.548 km/s
True Right ascension
08h 19m 47s
True Declination
0° 00' 00"
Sunlit
Object was in daylight at epoch
Visualization orbit readout
Latitude
Unknown
Longitude
Unknown
Altitude
Unknown
Speed
Unknown
Apparent Right ascension
Unknown
Apparent Declination
Unknown
Sunlit
N/A
Visualization observer readout
Local Sidereal Time
06:03:08
Azimuth
Unknown
Elevation
Unknown
Doppler factor
Unknown
Orbital elements
Apogee altitude
635.09 km
Perigee altitude
624.746 km
Semi-major axis
7,008.055 km
Eccentricity
0.00074
Inclination
5.9962°
RAAN
124.9461°
Arg. of periapsis
127.514°
True anomaly
232.49869°
Mean anomaly
232.5658°
Eccentric anomaly
232.53224°
Mean motion
3.69953 °/min
Orbital period
97.31 mins
BSTAR
0.0002343
Loading maneuver chart data...
Computing Atmospheric mass density...
Loading historical data...
Loading historical data...
Loading historical data...
Loading historical data...
Loading historical data...
Loading historical data...
Loading historical data...

Documentation

Showing up to 5 results
|